QPF
0.01 0.01 0.01 0.02 0.02 0.02 0.03 0.02 0.03 0.03 0.02 0.02 0.01 0.03 0.04 0.04 0.04 0.05 0.08 0.14 0.16 0.13 0.13 0.13 0.13 0.10 0.07 0.07 0.07 0.06 0.09 0.11 0.10 0.10 0.12 0.11 0.10 0.10 0.10 0.08 0.08 0.11 0.12 0.11 0.08 0.07 0.07 0.07 0.08
0.00 0.01 0.02 0.03 0.03 0.04 0.03 0.03 0.03 0.02 0.01 0.02 0.01 0.03 0.03 0.03 0.03 0.04 0.09 0.13 0.12 0.10 0.10 0.09 0.10 0.09 0.07 0.08 0.07 0.07 0.11 0.09 0.08 0.10 0.11 0.09 0.07 0.08 0.08 0.08 0.08 0.10 0.11 0.08 0.08 0.06 0.06 0.07 0.08
0.01 0.02 0.03 0.03 0.04 0.03 0.04 0.04 0.01 0.01 0.02 0.03 0.01 0.02 0.04 0.05 0.03 0.06 0.10 0.09 0.07 0.10 0.11 0.10 0.10 0.09 0.09 0.09 0.08 0.12 0.10 0.07 0.07 0.09 0.10 0.09 0.08 0.09 0.09 0.11 0.11 0.11 0.09 0.08 0.08 0.05 0.06 0.07 0.07
0.01 0.02 0.02 0.02 0.02 0.02 0.03 0.03 0.01 0.00 0.02 0.02 0.01 0.02 0.04 0.05 0.05 0.07 0.08 0.07 0.06 0.06 0.08 0.09 0.08 0.09 0.09 0.08 0.09 0.12 0.08 0.07 0.06 0.08 0.09 0.08 0.10 0.10 0.10 0.15 0.16 0.11 0.07 0.07 0.08 0.07 0.08 0.07 0.07
0.00 0.01 0.01 0.01 0.01 0.02 0.01 0.01 0.01 0.00 0.01 0.02 0.02 0.04 0.06 0.08 0.09 0.07 0.05 0.06 0.05 0.05 0.08 0.09 0.07 0.08 0.09 0.08 0.09 0.12 0.08 0.07 0.06 0.08 0.09 0.08 0.09 0.09 0.10 0.19 0.15 0.07 0.06 0.06 0.07 0.08 0.09 0.11 0.13
0.00 0.01 0.01 0.01 0.02 0.02 0.02 0.02 0.01 0.01 0.02 0.02 0.02 0.04 0.06 0.07 0.05 0.05 0.05 0.04 0.05 0.04 0.06 0.07 0.07 0.07 0.07 0.08 0.08 0.11 0.07 0.06 0.08 0.10 0.09 0.07 0.06 0.07 0.08 0.10 0.09 0.08 0.07 0.06 0.07 0.08 0.11 0.16 0.16
0.00 0.01 0.01 0.01 0.02 0.02 0.02 0.03 0.02 0.02 0.02 0.01 0.02 0.02 0.04 0.05 0.04 0.05 0.04 0.02 0.02 0.03 0.05 0.06 0.07 0.07 0.07 0.09 0.10 0.11 0.11 0.09 0.10 0.11 0.09 0.08 0.08 0.08 0.07 0.06 0.07 0.08 0.09 0.07 0.08 0.09 0.12 0.15 0.13
0.00 0.01 0.01 0.01 0.03 0.03 0.03 0.03 0.03 0.02 0.01 0.01 0.01 0.02 0.05 0.05 0.03 0.03 0.02 0.02 0.02 0.03 0.03 0.03 0.04 0.05 0.05 0.08 0.09 0.10 0.11 0.13 0.13 0.11 0.10 0.08 0.08 0.07 0.05 0.05 0.07 0.09 0.08 0.06 0.06 0.07 0.07 0.08 0.09
0.00 0.01 0.02 0.02 0.02 0.03 0.02 0.02 0.02 0.02 0.01 0.01 0.02 0.04 0.07 0.03 0.02 0.02 0.02 0.02 0.02 0.02 0.03 0.02 0.04 0.04 0.03 0.04 0.06 0.10 0.14 0.12 0.10 0.09 0.07 0.06 0.07 0.07 0.06 0.06 0.07 0.09 0.08 0.06 0.06 0.06 0.05 0.05 0.07
0.00 0.01 0.02 0.02 0.02 0.02 0.01 0.01 0.01 0.02 0.02 0.01 0.03 0.05 0.03 0.01 0.02 0.01 0.02 0.02 0.02 0.02 0.03 0.02 0.02 0.02 0.02 0.03 0.06 0.12 0.13 0.10 0.08 0.07 0.06 0.07 0.07 0.08 0.07 0.08 0.08 0.10 0.08 0.05 0.04 0.04 0.03 0.04 0.04
0.00 0.01 0.02 0.02 0.01 0.01 0.02 0.01 0.01 0.01 0.02 0.02 0.01 0.01 0.01 0.01 0.01 0.01 0.02 0.03 0.03 0.03 0.03 0.02 0.03 0.03 0.03 0.03 0.05 0.07 0.08 0.08 0.08 0.06 0.05 0.05 0.05 0.06 0.06 0.07 0.06 0.07 0.05 0.04 0.04 0.04 0.03 0.04 0.05
0.00 0.00 0.01 0.01 0.01 0.02 0.02 0.02 0.02 0.01 0.01 0.01 0.01 0.01 0.01 0.01 0.01 0.02 0.02 0.02 0.03 0.04 0.04 0.04 0.04 0.04 0.03 0.03 0.03 0.04 0.06 0.08 0.08 0.05 0.05 0.05 0.06 0.07 0.07 0.07 0.06 0.06 0.05 0.04 0.04 0.06 0.04 0.04 0.05
0.01 0.01 0.01 0.01 0.02 0.03 0.03 0.02 0.01 0.01 0.01 0.01 0.02 0.03 0.03 0.02 0.02 0.02 0.02 0.03 0.03 0.04 0.04 0.04 0.03 0.04 0.03 0.04 0.04 0.03 0.04 0.06 0.07 0.05 0.05 0.05 0.06 0.08 0.08 0.08 0.09 0.07 0.04 0.05 0.06 0.05 0.05 0.05 0.04
0.01 0.00 0.01 0.01 0.01 0.02 0.01 0.01 0.01 0.02 0.01 0.02 0.02 0.03 0.02 0.01 0.02 0.03 0.03 0.04 0.04 0.03 0.03 0.03 0.03 0.04 0.05 0.03 0.03 0.02 0.02 0.03 0.03 0.04 0.04 0.05 0.07 0.09 0.09 0.08 0.10 0.10 0.06 0.06 0.05 0.04 0.04 0.04 0.03
0.00 0.00 0.01 0.01 0.01 0.01 0.01 0.02 0.02 0.02 0.02 0.02 0.03 0.02 0.01 0.02 0.02 0.03 0.03 0.03 0.04 0.05 0.02 0.02 0.04 0.04 0.04 0.03 0.02 0.03 0.02 0.02 0.02 0.04 0.05 0.05 0.06 0.08 0.08 0.07 0.08 0.08 0.07 0.05 0.04 0.03 0.03 0.03 0.03
0.00 0.00 0.01 0.01 0.01 0.01 0.02 0.02 0.02 0.02 0.02 0.03 0.02 0.01 0.01 0.02 0.02 0.02 0.01 0.02 0.02 0.03 0.03 0.01 0.02 0.02 0.04 0.03 0.03 0.04 0.04 0.03 0.03 0.03 0.04 0.04 0.04 0.05 0.07 0.07 0.06 0.06 0.04 0.02 0.03 0.03 0.03 0.03 0.03
0.00 0.00 0.00 0.01 0.01 0.01 0.02 0.02 0.02 0.01 0.02 0.03 0.02 0.02 0.01 0.02 0.03 0.02 0.02 0.02 0.03 0.03 0.02 0.01 0.02 0.02 0.03 0.04 0.04 0.05 0.05 0.04 0.03 0.03 0.03 0.04 0.04 0.03 0.04 0.05 0.05 0.04 0.02 0.02 0.02 0.02 0.03 0.04 0.03
0.00 0.00 0.00 0.00 0.01 0.01 0.01 0.01 0.02 0.02 0.03 0.02 0.02 0.01 0.01 0.01 0.01 0.02 0.02 0.02 0.03 0.03 0.02 0.02 0.02 0.02 0.03 0.03 0.04 0.05 0.07 0.04 0.03 0.03 0.03 0.03 0.03 0.02 0.04 0.05 0.06 0.03 0.03 0.03 0.03 0.03 0.04 0.03 0.03
0.00 0.00 0.00 0.00 0.00 0.00 0.00 0.00 0.02 0.03 0.04 0.05 0.03 0.01 0.00 0.00 0.01 0.01 0.01 0.01 0.02 0.03 0.03 0.02 0.03 0.03 0.03 0.04 0.05 0.05 0.05 0.04 0.03 0.02 0.02 0.02 0.02 0.03 0.05 0.04 0.06 0.04 0.04 0.05 0.04 0.03 0.04 0.03 0.02
0.00 0.00 0.01 0.01 0.00 0.00 0.00 0.00 0.01 0.01 0.02 0.03 0.01 0.01 0.00 0.00 0.00 0.00 0.01 0.02 0.02 0.02 0.02 0.01 0.03 0.03 0.03 0.03 0.04 0.05 0.06 0.05 0.03 0.02 0.02 0.02 0.03 0.03 0.05 0.06 0.05 0.04 0.06 0.06 0.05 0.05 0.05 0.03 0.03
0.00 0.00 0.01 0.02 0.00 0.00 0.00 0.00 0.01 0.01 0.01 0.01 0.01 0.00 0.00 0.00 0.00 0.00 0.01 0.02 0.02 0.01 0.01 0.02 0.02 0.02 0.02 0.02 0.03 0.04 0.04 0.04 0.03 0.03 0.02 0.01 0.02 0.03 0.04 0.05 0.07 0.05 0.04 0.04 0.05 0.06 0.07 0.06 0.03
0.01 0.00 0.01 0.02 0.00 0.00 0.00 0.01 0.01 0.00 0.01 0.01 0.01 0.00 0.00 0.00 0.00 0.00 0.00 0.01 0.01 0.01 0.01 0.01 0.02 0.01 0.02 0.02 0.04 0.04 0.04 0.04 0.03 0.02 0.02 0.02 0.02 0.02 0.03 0.05 0.08 0.06 0.03 0.04 0.04 0.04 0.07 0.06 0.04
0.01 0.00 0.01 0.01 0.01 0.00 0.00 0.00 0.00 0.00 0.00 0.01 0.00 0.00 0.00 0.00 0.00 0.00 0.00 0.01 0.00 0.00 0.00 0.01 0.01 0.02 0.02 0.02 0.03 0.03 0.03 0.03 0.03 0.02 0.02 0.04 0.04 0.02 0.02 0.03 0.05 0.06 0.04 0.04 0.04 0.03 0.04 0.05 0.04
0.00 0.00 0.01 0.01 0.01 0.01 0.00 0.00 0.00 0.00 0.00 0.00 0.00 0.00 0.00 0.00 0.00 0.00 0.00 0.00 0.00 0.00 0.00 0.00 0.01 0.01 0.01 0.01 0.02 0.02 0.03 0.04 0.04 0.03 0.03 0.06 0.06 0.04 0.02 0.03 0.04 0.05 0.04 0.03 0.03 0.03 0.03 0.04 0.04
0.00 0.01 0.01 0.01 0.01 0.01 0.00 0.00 0.00 0.00 0.00 0.00 0.00 0.00 0.00 0.00 0.00 0.00 0.00 0.00 0.00 0.00 0.00 0.00 0.01 0.01 0.01 0.02 0.02 0.03 0.03 0.04 0.04 0.04 0.03 0.07 0.09 0.05 0.04 0.03 0.04 0.06 0.06 0.03 0.03 0.03 0.03 0.04 0.04
0.00 0.00 0.01 0.01 0.01 0.00 0.00 0.00 0.00 0.00 0.00 0.00 0.00 0.00 0.00 0.00 0.00 0.00 0.00 0.00 0.00 0.00 0.00 0.00 0.01 0.01 0.02 0.03 0.03 0.03 0.02 0.03 0.04 0.04 0.03 0.03 0.04 0.02 0.02 0.03 0.04 0.06 0.06 0.05 0.05 0.04 0.03 0.03 0.03
0.00 0.00 0.00 0.00 0.00 0.00 0.00 0.00 0.00 0.00 0.00 0.00 0.00 0.00 0.00 0.00 0.00 0.00 0.00 0.00 0.00 0.00 0.00 0.00 0.01 0.01 0.02 0.04 0.02 0.01 0.01 0.02 0.06 0.07 0.03 0.02 0.03 0.02 0.01 0.02 0.03 0.04 0.05 0.06 0.06 0.06 0.04 0.03 0.03
0.00 0.00 0.00 0.00 0.01 0.01 0.00 0.00 0.00 0.00 0.00 0.00 0.00 0.00 0.00 0.00 0.00 0.00 0.00 0.00 0.00 0.01 0.02 0.01 0.00 0.01 0.02 0.03 0.03 0.02 0.02 0.02 0.03 0.03 0.02 0.02 0.03 0.02 0.02 0.02 0.02 0.01 0.02 0.03 0.04 0.04 0.04 0.03 0.03
0.00 0.00 0.00 0.01 0.01 0.01 0.01 0.00 0.00 0.00 0.00 0.00 0.00 0.00 0.00 0.00 0.00 0.01 0.00 0.00 0.01 0.02 0.03 0.02 0.01 0.01 0.01 0.03 0.03 0.03 0.03 0.02 0.02 0.02 0.02 0.02 0.02 0.01 0.01 0.02 0.02 0.02 0.03 0.04 0.04 0.04 0.04 0.03 0.03
0.00 0.00 0.01 0.01 0.02 0.01 0.01 0.01 0.00 0.00 0.00 0.00 0.00 0.00 0.01 0.01 0.01 0.01 0.01 0.01 0.01 0.02 0.02 0.03 0.02 0.02 0.03 0.03 0.01 0.01 0.02 0.03 0.03 0.02 0.02 0.02 0.02 0.02 0.02 0.02 0.02 0.03 0.05 0.05 0.05 0.04 0.04 0.04 0.03
MSLP
1009.80 1010.45 1011.18 1011.84 1012.34 1012.60 1012.60 1012.37 1012.00 1011.60 1011.26 1011.05 1010.97 1010.98 1011.00 1010.94 1010.74 1010.36 1009.84 1009.24 1008.66 1008.18 1007.86 1007.73 1007.76 1007.88 1008.02 1008.09 1008.04 1007.85 1007.52 1007.09 1006.59 1006.08 1005.57 1005.08 1004.61 1004.16 1003.71 1003.26 1002.79 1002.30 1001.78 1001.21 1000.60 999.96 999.31 998.69 998.19
1009.98 1010.68 1011.41 1012.05 1012.51 1012.72 1012.67 1012.40 1012.00 1011.57 1011.21 1010.96 1010.84 1010.79 1010.76 1010.66 1010.44 1010.06 1009.55 1008.99 1008.44 1007.99 1007.69 1007.56 1007.59 1007.72 1007.86 1007.94 1007.92 1007.76 1007.45 1007.02 1006.49 1005.90 1005.30 1004.70 1004.13 1003.61 1003.12 1002.66 1002.19 1001.69 1001.10 1000.39 999.53 998.55 997.49 996.46 995.58
1010.24 1010.94 1011.63 1012.22 1012.61 1012.76 1012.67 1012.38 1011.97 1011.54 1011.16 1010.89 1010.73 1010.63 1010.53 1010.37 1010.10 1009.71 1009.21 1008.66 1008.15 1007.73 1007.46 1007.35 1007.38 1007.51 1007.65 1007.76 1007.76 1007.63 1007.34 1006.90 1006.34 1005.70 1005.02 1004.34 1003.70 1003.13 1002.63 1002.16 1001.70 1001.15 1000.43 999.50 998.30 996.87 995.29 993.72 992.36
1010.51 1011.16 1011.79 1012.30 1012.61 1012.71 1012.59 1012.29 1011.91 1011.50 1011.14 1010.87 1010.67 1010.52 1010.35 1010.13 1009.81 1009.38 1008.87 1008.35 1007.87 1007.48 1007.23 1007.13 1007.17 1007.29 1007.44 1007.55 1007.57 1007.45 1007.17 1006.74 1006.16 1005.48 1004.75 1004.02 1003.34 1002.75 1002.24 1001.78 1001.29 1000.67 999.79 998.57 996.96 995.01 992.85 990.69 988.80
1010.72 1011.30 1011.83 1012.24 1012.48 1012.53 1012.40 1012.14 1011.81 1011.47 1011.16 1010.90 1010.70 1010.50 1010.28 1009.99 1009.61 1009.14 1008.63 1008.12 1007.66 1007.30 1007.07 1006.98 1007.01 1007.12 1007.25 1007.34 1007.36 1007.24 1006.98 1006.54 1005.95 1005.25 1004.49 1003.73 1003.03 1002.44 1001.94 1001.49 1000.97 1000.25 999.19 997.67 995.65 993.19 990.45 987.72 985.32
1010.81 1011.29 1011.70 1012.02 1012.19 1012.22 1012.11 1011.92 1011.68 1011.43 1011.20 1010.99 1010.80 1010.58 1010.31 1009.96 1009.54 1009.05 1008.53 1008.03 1007.59 1007.26 1007.04 1006.94 1006.95 1007.02 1007.11 1007.18 1007.17 1007.04 1006.76 1006.32 1005.73 1005.02 1004.25 1003.48 1002.79 1002.20 1001.71 1001.25 1000.71 999.90 998.67 996.90 994.53 991.64 988.43 985.24 982.44
1010.76 1011.12 1011.42 1011.64 1011.76 1011.79 1011.74 1011.63 1011.51 1011.38 1011.25 1011.11 1010.95 1010.74 1010.44 1010.07 1009.61 1009.11 1008.60 1008.11 1007.70 1007.37 1007.16 1007.04 1007.01 1007.03 1007.06 1007.08 1007.02 1006.87 1006.58 1006.13 1005.54 1004.83 1004.06 1003.29 1002.60 1002.01 1001.53 1001.07 1000.49 999.63 998.30 996.36 993.79 990.65 987.17 983.71 980.67
1010.59 1010.83 1011.03 1011.18 1011.27 1011.31 1011.32 1011.32 1011.31 1011.31 1011.29 1011.24 1011.13 1010.93 1010.64 1010.26 1009.80 1009.30 1008.81 1008.35 1007.96 1007.65 1007.42 1007.28 1007.19 1007.15 1007.11 1007.06 1006.95 1006.76 1006.45 1006.00 1005.41 1004.70 1003.94 1003.17 1002.47 1001.88 1001.39 1000.92 1000.33 999.46 998.11 996.16 993.55 990.39 986.88 983.39 980.33
1010.35 1010.49 1010.61 1010.70 1010.78 1010.85 1010.93 1011.02 1011.13 1011.24 1011.32 1011.35 1011.29 1011.13 1010.86 1010.50 1010.06 1009.59 1009.13 1008.70 1008.34 1008.04 1007.80 1007.62 1007.48 1007.36 1007.24 1007.12 1006.96 1006.73 1006.40 1005.95 1005.37 1004.68 1003.92 1003.16 1002.45 1001.83 1001.32 1000.83 1000.25 999.42 998.15 996.32 993.89 990.93 987.64 984.37 981.51
1010.12 1010.19 1010.26 1010.32 1010.39 1010.49 1010.62 1010.79 1010.98 1011.17 1011.33 1011.42 1011.41 1011.29 1011.06 1010.73 1010.34 1009.92 1009.50 1009.12 1008.79 1008.50 1008.25 1008.03 1007.83 1007.63 1007.44 1007.25 1007.04 1006.78 1006.44 1006.01 1005.45 1004.78 1004.04 1003.27 1002.55 1001.90 1001.35 1000.85 1000.29 999.54 998.43 996.85 994.76 992.20 989.36 986.52 984.05
1009.98 1010.02 1010.05 1010.10 1010.17 1010.29 1010.45 1010.66 1010.90 1011.13 1011.33 1011.45 1011.48 1011.40 1011.21 1010.93 1010.59 1010.23 1009.88 1009.55 1009.25 1008.98 1008.71 1008.45 1008.19 1007.93 1007.68 1007.43 1007.18 1006.90 1006.57 1006.16 1005.64 1005.01 1004.30 1003.53 1002.79 1002.10 1001.51 1000.99 1000.46 999.81 998.92 997.67 996.02 994.00 991.75 989.50 987.54
1009.98 1010.01 1010.05 1010.10 1010.17 1010.29 1010.46 1010.67 1010.90 1011.13 1011.33 1011.46 1011.50 1011.44 1011.30 1011.07 1010.80 1010.51 1010.23 1009.95 1009.68 1009.42 1009.14 1008.85 1008.54 1008.23 1007.92 1007.63 1007.35 1007.07 1006.77 1006.40 1005.93 1005.35 1004.67 1003.93 1003.17 1002.45 1001.82 1001.27 1000.77 1000.23 999.55 998.66 997.48 996.05 994.44 992.83 991.43
1010.13 1010.19 1010.24 1010.31 1010.39 1010.49 1010.63 1010.81 1010.99 1011.18 1011.34 1011.44 1011.48 1011.44 1011.33 1011.17 1010.96 1010.74 1010.52 1010.29 1010.05 1009.80 1009.51 1009.19 1008.85 1008.49 1008.15 1007.83 1007.54 1007.27 1007.00 1006.68 1006.27 1005.75 1005.13 1004.42 1003.67 1002.93 1002.27 1001.69 1001.20 1000.75 1000.26 999.68 998.94 998.05 997.05 996.05 995.19
1010.41 1010.52 1010.60 1010.68 1010.76 1010.85 1010.95 1011.06 1011.17 1011.28 1011.38 1011.44 1011.45 1011.42 1011.34 1011.23 1011.08 1010.92 1010.75 1010.56 1010.35 1010.10 1009.81 1009.47 1009.11 1008.72 1008.36 1008.02 1007.73 1007.48 1007.23 1006.96 1006.62 1006.17 1005.62 1004.96 1004.24 1003.50 1002.82 1002.22 1001.73 1001.33 1000.97 1000.62 1000.22 999.75 999.24 998.74 998.33
1010.77 1010.92 1011.05 1011.15 1011.23 1011.29 1011.33 1011.37 1011.40 1011.43 1011.44 1011.45 1011.43 1011.40 1011.34 1011.27 1011.17 1011.06 1010.93 1010.78 1010.58 1010.34 1010.04 1009.70 1009.32 1008.93 1008.55 1008.21 1007.92 1007.68 1007.46 1007.22 1006.93 1006.56 1006.07 1005.48 1004.81 1004.11 1003.43 1002.83 1002.32 1001.93 1001.64 1001.42 1001.23 1001.05 1000.88 1000.73 1000.64
1011.14 1011.34 1011.50 1011.63 1011.72 1011.75 1011.75 1011.71 1011.66 1011.59 1011.53 1011.47 1011.43 1011.39 1011.35 1011.31 1011.25 1011.18 1011.08 1010.94 1010.75 1010.52 1010.23 1009.89 1009.51 1009.12 1008.75 1008.41 1008.12 1007.88 1007.67 1007.45 1007.20 1006.88 1006.46 1005.94 1005.35 1004.70 1004.06 1003.47 1002.96 1002.56 1002.27 1002.09 1001.99 1001.95 1001.96 1002.01 1002.11
1011.47 1011.71 1011.92 1012.07 1012.17 1012.19 1012.15 1012.05 1011.91 1011.76 1011.63 1011.52 1011.44 1011.39 1011.36 1011.34 1011.31 1011.26 1011.18 1011.06 1010.88 1010.65 1010.37 1010.05 1009.70 1009.33 1008.97 1008.64 1008.35 1008.10 1007.87 1007.66 1007.42 1007.12 1006.76 1006.32 1005.81 1005.25 1004.67 1004.11 1003.61 1003.20 1002.90 1002.69 1002.59 1002.57 1002.63 1002.75 1002.93
1011.75 1012.02 1012.26 1012.46 1012.57 1012.58 1012.51 1012.35 1012.15 1011.93 1011.72 1011.55 1011.44 1011.38 1011.35 1011.34 1011.33 1011.30 1011.23 1011.12 1010.95 1010.74 1010.48 1010.19 1009.88 1009.55 1009.23 1008.91 1008.62 1008.36 1008.11 1007.86 1007.61 1007.33 1007.00 1006.63 1006.20 1005.73 1005.24 1004.75 1004.29 1003.88 1003.55 1003.30 1003.14 1003.07 1003.08 1003.18 1003.35
1011.97 1012.27 1012.55 1012.78 1012.91 1012.93 1012.83 1012.62 1012.35 1012.06 1011.79 1011.56 1011.41 1011.32 1011.28 1011.28 1011.28 1011.26 1011.21 1011.10 1010.96 1010.77 1010.55 1010.31 1010.05 1009.78 1009.51 1009.23 1008.95 1008.67 1008.39 1008.11 1007.82 1007.52 1007.21 1006.88 1006.53 1006.16 1005.77 1005.37 1004.98 1004.60 1004.26 1003.97 1003.74 1003.59 1003.53 1003.55 1003.67
1012.16 1012.49 1012.82 1013.08 1013.23 1013.25 1013.12 1012.86 1012.52 1012.15 1011.80 1011.51 1011.30 1011.18 1011.13 1011.13 1011.14 1011.13 1011.09 1011.00 1010.88 1010.72 1010.55 1010.37 1010.19 1010.00 1009.79 1009.57 1009.31 1009.03 1008.73 1008.41 1008.08 1007.76 1007.44 1007.14 1006.84 1006.56 1006.27 1005.97 1005.67 1005.35 1005.03 1004.72 1004.44 1004.22 1004.08 1004.02 1004.06
1012.35 1012.71 1013.08 1013.37 1013.54 1013.55 1013.38 1013.07 1012.64 1012.18 1011.74 1011.37 1011.10 1010.94 1010.87 1010.87 1010.88 1010.89 1010.86 1010.80 1010.71 1010.60 1010.48 1010.38 1010.27 1010.17 1010.05 1009.90 1009.70 1009.44 1009.13 1008.78 1008.42 1008.06 1007.72 1007.42 1007.16 1006.94 1006.74 1006.54 1006.32 1006.08 1005.81 1005.52 1005.23 1004.97 1004.77 1004.64 1004.62
1012.54 1012.95 1013.35 1013.68 1013.85 1013.84 1013.63 1013.23 1012.71 1012.15 1011.60 1011.14 1010.80 1010.59 1010.50 1010.49 1010.51 1010.54 1010.54 1010.51 1010.46 1010.39 1010.34 1010.30 1010.28 1010.28 1010.25 1010.19 1010.06 1009.85 1009.56 1009.21 1008.83 1008.43 1008.07 1007.76 1007.51 1007.32 1007.17 1007.04 1006.90 1006.73 1006.53 1006.28 1006.02 1005.75 1005.52 1005.36 1005.29
1012.73 1013.18 1013.63 1013.97 1014.15 1014.11 1013.83 1013.35 1012.73 1012.04 1011.39 1010.83 1010.42 1010.17 1010.05 1010.04 1010.08 1010.14 1010.17 1010.17 1010.16 1010.13 1010.13 1010.15 1010.22 1010.30 1010.37 1010.40 1010.36 1010.22 1009.99 1009.66 1009.28 1008.87 1008.48 1008.15 1007.88 1007.69 1007.56 1007.47 1007.38 1007.27 1007.13 1006.94 1006.72 1006.48 1006.25 1006.07 1005.97
1012.87 1013.38 1013.86 1014.22 1014.39 1014.31 1013.97 1013.40 1012.67 1011.88 1011.12 1010.48 1010.00 1009.71 1009.58 1009.58 1009.64 1009.73 1009.80 1009.84 1009.86 1009.87 1009.90 1009.97 1010.08 1010.23 1010.39 1010.52 1010.57 1010.52 1010.36 1010.09 1009.73 1009.33 1008.93 1008.57 1008.27 1008.05 1007.91 1007.82 1007.75 1007.67 1007.58 1007.44 1007.26 1007.06 1006.86 1006.69 1006.57
1012.95 1013.50 1014.00 1014.38 1014.53 1014.41 1014.01 1013.36 1012.55 1011.67 1010.82 1010.11 1009.59 1009.27 1009.15 1009.16 1009.26 1009.39 1009.50 1009.57 1009.61 1009.63 1009.68 1009.77 1009.92 1010.12 1010.34 1010.54 1010.68 1010.73 1010.66 1010.46 1010.16 1009.79 1009.39 1009.00 1008.67 1008.41 1008.23 1008.11 1008.03 1007.96 1007.88 1007.78 1007.65 1007.49 1007.33 1007.17 1007.05
1012.92 1013.50 1014.03 1014.40 1014.54 1014.39 1013.94 1013.24 1012.37 1011.43 1010.54 1009.79 1009.25 1008.93 1008.81 1008.86 1008.99 1009.16 1009.30 1009.40 1009.45 1009.48 1009.53 1009.61 1009.77 1009.98 1010.24 1010.50 1010.71 1010.85 1010.87 1010.76 1010.53 1010.20 1009.83 1009.44 1009.09 1008.78 1008.55 1008.38 1008.27 1008.18 1008.11 1008.03 1007.93 1007.81 1007.68 1007.55 1007.44
1012.78 1013.37 1013.91 1014.27 1014.40 1014.23 1013.75 1013.03 1012.14 1011.18 1010.28 1009.54 1009.00 1008.70 1008.62 1008.69 1008.86 1009.06 1009.23 1009.34 1009.40 1009.43 1009.45 1009.52 1009.66 1009.86 1010.13 1010.42 1010.69 1010.90 1011.00 1010.98 1010.83 1010.57 1010.24 1009.88 1009.51 1009.18 1008.91 1008.70 1008.55 1008.44 1008.35 1008.28 1008.21 1008.13 1008.03 1007.93 1007.82
1012.54 1013.13 1013.65 1014.00 1014.11 1013.93 1013.46 1012.75 1011.87 1010.95 1010.08 1009.37 1008.87 1008.60 1008.55 1008.66 1008.86 1009.07 1009.26 1009.38 1009.44 1009.45 1009.46 1009.49 1009.60 1009.79 1010.05 1010.35 1010.66 1010.92 1011.09 1011.15 1011.09 1010.91 1010.63 1010.31 1009.96 1009.63 1009.34 1009.11 1008.93 1008.80 1008.71 1008.65 1008.60 1008.54 1008.48 1008.40 1008.31
1012.25 1012.81 1013.29 1013.62 1013.71 1013.53 1013.08 1012.41 1011.59 1010.73 1009.93 1009.28 1008.83 1008.61 1008.58 1008.71 1008.92 1009.15 1009.34 1009.46 1009.51 1009.51 1009.51 1009.52 1009.61 1009.78 1010.02 1010.32 1010.65 1010.94 1011.17 1011.30 1011.31 1011.21 1011.01 1010.74 1010.44 1010.14 1009.86 1009.63 1009.45 1009.33 1009.24 1009.19 1009.16 1009.13 1009.09 1009.04 1008.95
1011.96 1012.46 1012.89 1013.17 1013.24 1013.07 1012.65 1012.04 1011.30 1010.52 1009.81 1009.23 1008.84 1008.65 1008.65 1008.78 1008.99 1009.20 1009.39 1009.50 1009.55 1009.56 1009.55 1009.57 1009.64 1009.81 1010.05 1010.35 1010.68 1011.00 1011.27 1011.45 1011.53 1011.50 1011.37 1011.18 1010.94 1010.69 1010.46 1010.26 1010.10 1009.99 1009.93 1009.90 1009.89 1009.88 1009.86 1009.83 1009.75
Thickness
5815 5817 5816 5809 5802 5800 5792 5798 5805 5801 5801 5805 5805 5801 5794 5788 5783 5774 5791 5801 5801 5800 5798 5794 5792 5791 5791 5790 5789 5788 5787 5786 5784 5783 5782 5780 5779 5778 5778 5776 5774 5773 5772 5771 5770 5769 5768 5767 5766
5822 5819 5813 5809 5802 5791 5790 5803 5802 5802 5805 5807 5805 5801 5795 5790 5794 5792 5795 5798 5800 5800 5797 5794 5790 5790 5789 5789 5788 5787 5786 5784 5783 5782 5781 5779 5778 5777 5776 5775 5773 5772 5771 5770 5769 5768 5767 5766 5765
5823 5820 5812 5811 5802 5793 5791 5804 5805 5808 5811 5807 5801 5800 5794 5788 5793 5794 5796 5799 5800 5798 5796 5791 5789 5788 5788 5787 5787 5786 5785 5784 5783 5781 5780 5778 5777 5776 5775 5774 5773 5771 5770 5769 5768 5767 5766 5765 5765
5823 5818 5817 5811 5801 5804 5805 5809 5812 5809 5808 5808 5803 5794 5792 5794 5797 5798 5799 5800 5799 5797 5796 5791 5788 5787 5786 5786 5785 5785 5784 5783 5782 5780 5779 5777 5776 5775 5774 5773 5772 5771 5770 5769 5768 5766 5765 5765 5764
5826 5821 5814 5807 5804 5809 5815 5816 5816 5807 5803 5804 5802 5789 5785 5794 5800 5800 5799 5799 5798 5797 5796 5792 5787 5786 5785 5785 5784 5783 5783 5782 5781 5779 5778 5777 5776 5775 5774 5773 5771 5770 5770 5769 5768 5767 5766 5765 5764
5825 5825 5810 5801 5803 5810 5815 5818 5815 5806 5803 5803 5800 5791 5785 5795 5797 5798 5799 5798 5799 5797 5796 5792 5787 5785 5784 5784 5783 5782 5782 5781 5780 5778 5777 5776 5775 5774 5773 5772 5771 5770 5769 5769 5768 5767 5766 5766 5765
5823 5822 5811 5808 5805 5807 5811 5819 5812 5807 5802 5803 5805 5793 5788 5793 5798 5799 5799 5799 5798 5797 5796 5794 5791 5787 5785 5783 5782 5782 5781 5780 5779 5778 5776 5775 5774 5773 5773 5772 5771 5770 5769 5769 5768 5767 5767 5766 5766
5835 5828 5816 5813 5807 5805 5816 5819 5816 5812 5804 5811 5810 5795 5789 5794 5800 5800 5799 5798 5797 5797 5796 5794 5792 5790 5789 5786 5783 5781 5780 5779 5778 5777 5776 5775 5774 5774 5773 5773 5771 5770 5769 5769 5768 5768 5767 5767 5767
5839 5824 5812 5813 5812 5811 5819 5816 5816 5820 5812 5809 5810 5806 5804 5803 5802 5798 5796 5795 5793 5793 5794 5795 5793 5791 5790 5788 5784 5783 5781 5780 5779 5778 5777 5777 5779 5778 5776 5774 5772 5770 5769 5769 5769 5768 5768 5768 5768
5836 5819 5816 5825 5827 5821 5820 5817 5817 5813 5806 5803 5804 5805 5806 5803 5800 5796 5794 5792 5791 5790 5793 5795 5794 5792 5791 5789 5786 5785 5784 5782 5781 5780 5779 5780 5779 5778 5777 5774 5772 5771 5770 5770 5770 5770 5770 5771 5773
5835 5822 5827 5831 5833 5829 5822 5820 5822 5814 5803 5805 5803 5802 5803 5801 5799 5797 5795 5794 5793 5793 5793 5795 5794 5792 5792 5789 5788 5786 5785 5783 5782 5781 5780 5780 5780 5779 5778 5777 5775 5774 5773 5774 5773 5774 5776 5776 5774
5833 5832 5833 5833 5835 5830 5824 5822 5819 5816 5812 5817 5815 5810 5805 5801 5800 5798 5797 5796 5795 5793 5793 5795 5795 5792 5790 5789 5789 5787 5786 5785 5784 5782 5782 5782 5781 5780 5780 5779 5779 5778 5777 5776 5776 5776 5776 5775 5775
5832 5832 5836 5837 5835 5832 5828 5822 5819 5816 5821 5820 5816 5810 5805 5804 5802 5802 5801 5799 5796 5794 5794 5795 5793 5791 5790 5788 5788 5788 5787 5787 5785 5783 5782 5782 5782 5781 5781 5779 5778 5779 5779 5778 5777 5777 5776 5776 5776
5836 5836 5836 5836 5834 5832 5825 5822 5820 5816 5822 5817 5812 5809 5808 5806 5804 5802 5799 5797 5796 5795 5795 5795 5794 5792 5790 5788 5787 5787 5787 5786 5786 5785 5783 5782 5782 5781 5781 5780 5779 5780 5780 5779 5778 5778 5777 5777 5777
5843 5834 5833 5834 5834 5832 5828 5815 5817 5823 5822 5815 5812 5810 5809 5808 5806 5803 5802 5800 5799 5798 5797 5795 5795 5793 5791 5789 5789 5789 5788 5788 5787 5785 5783 5782 5782 5781 5781 5781 5781 5781 5780 5779 5779 5778 5779 5778 5777
5840 5832 5822 5830 5834 5833 5824 5806 5820 5828 5821 5814 5813 5811 5809 5808 5808 5807 5806 5804 5803 5801 5798 5796 5797 5794 5791 5789 5788 5790 5789 5787 5787 5786 5785 5783 5782 5781 5781 5781 5782 5780 5781 5781 5779 5779 5778 5777 5776
5830 5823 5821 5826 5835 5833 5825 5813 5823 5829 5823 5816 5814 5814 5812 5809 5809 5810 5809 5807 5805 5802 5799 5797 5796 5794 5792 5790 5789 5789 5787 5786 5786 5786 5785 5784 5782 5782 5782 5782 5780 5780 5781 5781 5780 5779 5778 5775 5775
5819 5823 5822 5823 5832 5830 5823 5820 5826 5828 5825 5821 5819 5817 5814 5812 5812 5814 5813 5811 5808 5805 5801 5799 5796 5794 5793 5791 5789 5788 5787 5787 5786 5785 5784 5783 5783 5781 5782 5782 5779 5781 5781 5779 5778 5775 5775 5775 5775
5831 5825 5821 5825 5835 5828 5822 5822 5827 5830 5827 5823 5822 5820 5818 5817 5820 5819 5816 5814 5811 5807 5803 5800 5797 5795 5792 5791 5789 5787 5786 5786 5786 5785 5783 5782 5781 5781 5780 5781 5779 5779 5779 5777 5778 5776 5776 5775 5775
5828 5822 5821 5825 5832 5828 5823 5823 5831 5833 5829 5828 5825 5822 5821 5820 5820 5818 5817 5815 5812 5808 5805 5802 5799 5797 5794 5793 5790 5789 5787 5787 5786 5785 5782 5781 5780 5780 5781 5778 5779 5778 5776 5775 5775 5773 5774 5775 5775
5824 5824 5823 5820 5826 5831 5824 5819 5825 5832 5834 5832 5832 5831 5829 5826 5822 5820 5818 5817 5815 5811 5808 5807 5802 5799 5796 5795 5793 5790 5787 5785 5785 5783 5782 5781 5780 5779 5778 5778 5778 5777 5778 5777 5774 5773 5771 5771 5773
5818 5831 5828 5822 5818 5818 5822 5806 5821 5828 5828 5829 5831 5832 5832 5832 5830 5827 5823 5820 5818 5816 5814 5809 5804 5801 5798 5795 5793 5789 5785 5783 5783 5782 5782 5781 5780 5779 5778 5777 5777 5776 5778 5775 5776 5775 5773 5769 5769
5825 5833 5829 5825 5821 5816 5823 5814 5819 5829 5822 5827 5833 5835 5836 5836 5834 5830 5828 5824 5822 5820 5816 5811 5805 5801 5799 5796 5793 5789 5787 5786 5785 5783 5780 5779 5780 5778 5778 5777 5776 5775 5775 5774 5773 5772 5771 5771 5769
5832 5828 5825 5825 5823 5801 5813 5813 5810 5825 5824 5828 5834 5835 5836 5837 5836 5833 5832 5828 5824 5821 5817 5813 5805 5801 5799 5796 5794 5789 5786 5784 5781 5779 5778 5778 5779 5778 5777 5776 5775 5774 5774 5773 5772 5771 5770 5768 5766
5826 5815 5800 5797 5799 5801 5818 5812 5812 5829 5834 5833 5833 5835 5837 5837 5835 5832 5829 5826 5823 5820 5817 5813 5806 5800 5799 5796 5793 5790 5787 5783 5780 5779 5778 5777 5777 5776 5774 5775 5773 5773 5771 5771 5770 5769 5768 5767 5764
5820 5819 5799 5787 5791 5804 5811 5807 5821 5835 5838 5839 5838 5838 5836 5836 5835 5832 5829 5827 5824 5821 5817 5812 5806 5801 5798 5795 5792 5790 5787 5785 5783 5779 5778 5777 5777 5776 5774 5772 5771 5770 5770 5770 5768 5768 5767 5765 5763
5816 5817 5828 5814 5808 5800 5806 5814 5823 5833 5832 5833 5834 5834 5834 5834 5834 5832 5830 5828 5825 5821 5817 5813 5807 5801 5798 5794 5791 5788 5785 5783 5782 5779 5777 5776 5774 5775 5772 5771 5769 5768 5767 5766 5765 5764 5763 5762 5761
5828 5825 5818 5809 5785 5784 5795 5802 5809 5816 5822 5828 5829 5830 5832 5833 5832 5831 5829 5827 5825 5822 5818 5813 5808 5801 5798 5795 5791 5789 5785 5782 5779 5778 5775 5773 5771 5770 5769 5768 5767 5766 5764 5763 5762 5762 5760 5758 5756
5812 5813 5811 5810 5807 5790 5783 5799 5823 5821 5824 5826 5828 5830 5830 5830 5830 5828 5826 5825 5823 5820 5817 5811 5806 5800 5796 5793 5789 5787 5783 5781 5778 5776 5774 5771 5769 5767 5766 5765 5764 5763 5761 5760 5758 5758 5757 5754 5753
5819 5815 5811 5796 5790 5798 5797 5800 5828 5827 5830 5829 5827 5828 5828 5828 5827 5825 5822 5819 5817 5814 5813 5808 5803 5799 5795 5792 5787 5784 5781 5778 5776 5774 5771 5769 5767 5765 5763 5762 5761 5760 5759 5757 5755 5753 5753 5751 5749